User: anonymous   Login
Location: Maiden
(35.5760°N, 81.2120°W)
Time: 11:06:50
(UTC-04:00)
Language:

A-11 Canister half - Orbit

View from above orbital plane
View from above orbital plane
View from above satellite
View from above satellite

Ground track
Ground track

The orbit data is extracted from the following two-line orbital elements,

1    53U 60009E   20216.79466254 -.00000108 +00000-0 -23708-3 0  9991
2    53 047.2765 112.9948 0097275 221.7549 137.5786 12.17241795674334
Epoch (UTC): 03 August 2020 19:04:18
Eccentricity: 0.0097275
inclination: 47.2765°
perigee height: 1527 km
apogee height: 1682 km
right ascension of ascending node: 112.9948°
argument of perigee: 221.7549°
revolutions per day: 12.17241795
mean anomaly at epoch: 137.5786°
orbit number at epoch: 67433

The dashed part of the orbit path shows where the satellite is in the earth's shadow,  

DLR